Location: Heisede
(52.2582°N, 9.8523°E)
Time: 23:29:43
(UTC+00:00)

SL-08 R/B - Pass Details

Date: 13 January 2026
Orbit: 667 x 730 km, 98.5° (Epoch: 7 February)

Event Time Altitude Azimuth Distance (km) Brightness Sun altitude
Rises 06:39:45 0° 171° (S) 3,125 7.2 -6.7°
Reaches altitude 10° 06:42:01 10° 174° (S) 2,214 6.4 -6.4°
Maximum altitude 06:46:52 66° 257° (WSW) 798 3.5 -5.7°
Drops below altitude 10° 06:51:47 10° 340° (NNW) 2,241 5.5 -5.1°
Sets 06:54:05 0° 343° (NNW) 3,166 6.3 -4.8°
